Regional Weather Roundup
Issued by NWS

Home | Current Version | Previous Version | Text Only | Print | Product List | Glossary Off
Versions: 1 2 3 4 5 6 7 8 9 10 11 12 13 14 15 16 17 18 19 20 21 22 23 24 25 26 27 28 29 30 31 32 33 34 35 36 37 38 39 40 41 42 43 44 45 46 47 48 49 50

000
ASUS43 KLMK 260010
RWRKY
KENTUCKY REGIONAL WEATHER ROUNDUP
NATIONAL WEATHER SERVICE LOUISVILLE KY
700 PM EST THU DEC 25 2014

NOTE "FAIR" INDICATES FEW OR NO CLOUDS BELOW 12,000 FEET
WITH NO SIGNIFICANT WEATHER AND/OR OBSTRUCTIONS TO VISIBILITY.

KYZ001>023-026-027-061>063-070>075-260100-
WESTERN AND SOUTH CENTRAL KENTUCKY

CITY           SKY/WX    TMP DP  RH WIND       PRES   REMARKS
PADUCAH        CLEAR     42  32  67 S6        30.10S
HENDERSON      CLEAR     43  30  61 S9        30.13R
OWENSBORO      CLEAR     43  35  73 S9        30.15S
HOPKINSVILLE   CLEAR     45  34  64 SE6       30.15F
BOWLING GREEN  CLEAR     41  32  70 SE5       30.20F
GLASGOW        CLEAR     41  33  72 SE3       30.21S
$$

KYZ024-025-028>034-038-045-046-053-260100-
NORTH CENTRAL KENTUCKY

CITY           SKY/WX    TMP DP  RH WIND       PRES   REMARKS
LOUISVILLE/SDF CLEAR     42  32  67 S9        30.19R
LOUISVILLE/LOU CLEAR     41  32  70 S3        30.20R
FORT KNOX      CLEAR     38  32  80 SE6       30.18R WCI  33
$$

KYZ035>037-039>044-047>052-055>060-089>105-260100-
NORTHEAST KENTUCKY

CITY           SKY/WX    TMP DP  RH WIND       PRES   REMARKS
LEXINGTON      CLEAR     37  31  78 S5        30.22R WCI  33
COVINGTON      PTCLDY    35  28  75 S6        30.19R WCI  30
FRANKFORT      CLEAR     37  30  75 S3        30.20R
$$

KYZ054-064>069-076>088-106>120-260100-
SOUTHEAST KENTUCKY

CITY           SKY/WX    TMP DP  RH WIND       PRES   REMARKS
JACKSON        CLEAR     38  30  73 SW5       30.22R WCI  34
LONDON         CLEAR     38  29  70 S3        30.24R
SOMERSET       CLEAR     36  32  87 CALM      30.26R
MIDDLESBORO    CLEAR     37  34  89 CALM      30.27R
MONTICELLO     CLEAR     33  31  93 CALM      30.27R
$$



USA.gov is the U.S. government's official web portal to all federal, state and local government web resources and services.